カタログに戻る

DELTA 1 DEB

運用中SSO
NORAD 37666·DEBRIS·🇺🇸 United States

打ち上げ Mar 5, 1978 から Vandenberg Space Force Base

Loading…

次のパス (今後24時間)

TLE

最新Source: Space-Track

元期: Sep 14, 2026, 07:41 UTC

1 37666U 78026KD  26257.32040931  .00000412  00000-0  21029-3 0  9999
2 37666  98.9177 292.1795 0036833  71.5863 288.9312 14.20859333221218

AllMySatでDELTA 1 DEBをリアルタイム追跡

Download on the App Store